GW3060 Weather Reports


Display with metric or nautical units.
time (UTC)temp
F
wind
direction
speed
MPH
gust
MPH
rain 1hr
in
rain 24hr
in
rain mn
in
humidity
%
barometer
mb
20260504141016 63 232 2.0 4.0 0.00 0.00 0.00 58 1016.5
20260504140526 63 204 1.0 3.0 0.00 0.00 0.00 59 1016.5
20260504130515 50 198 1.0 2.0 0.00 0.00 0.00 95 1016.6
20260504110515 39 125 0.0 0.0 0.00 0.00 0.00 93 1016.6
20260504100526 39 126 0.0 0.0 0.00 0.00 0.00 92 1016.6
20260504081515 40 126 0.0 0.0 0.00 0.00 0.00 90 1016.4
20260504081026 41 126 0.0 0.0 0.00 0.00 0.00 89 1016.4
20260504080515 41 126 0.0 0.0 0.00 0.00 0.00 89 1016.4
20260504050515 43 125 0.0 0.0 0.00 0.00 0.00 84 1016.6
20260504045527 43 126 0.0 0.0 0.00 0.00 0.00 84 1016.6
20260504045015 43 126 0.0 0.0 0.00 0.00 0.00 84 1016.7
20260504044516 43 126 0.0 0.0 0.00 0.00 0.00 85 1016.7
20260504044016 43 126 0.0 0.0 0.00 0.00 0.00 85 1016.5
20260504043516 43 126 0.0 0.0 0.00 0.00 0.00 85 1016.5
20260504043015 44 126 0.0 0.0 0.00 0.00 0.00 85 1016.4
20260504042515 44 125 0.0 0.0 0.00 0.00 0.00 85 1016.4
20260504042016 44 126 0.0 0.0 0.00 0.00 0.00 85 1016.4
20260504041515 44 126 0.0 0.0 0.00 0.00 0.00 85 1016.4
20260504041016 43 126 0.0 0.0 0.00 0.00 0.00 85 1016.4
20260504040516 44 125 0.0 0.0 0.00 0.00 0.00 85 1016.4
20260504040016 44 126 0.0 0.0 0.00 0.00 0.00 85 1016.5
20260504035516 44 126 0.0 0.0 0.00 0.00 0.00 85 1016.5
20260504035027 44 126 0.0 0.0 0.00 0.00 0.00 85 1016.4
20260504034527 44 126 0.0 0.0 0.00 0.00 0.00 84 1016.4
20260504034015 44 126 0.0 0.0 0.00 0.00 0.00 84 1016.4
20260504033516 44 126 0.0 0.0 0.00 0.00 0.00 82 1016.5
20260504033027 44 125 0.0 0.0 0.00 0.00 0.00 82 1016.5
20260504032516 44 126 0.0 0.0 0.00 0.00 0.00 82 1016.4
20260504032015 44 125 0.0 0.0 0.00 0.00 0.00 82 1016.4
20260504031527 44 126 0.0 0.0 0.00 0.00 0.00 82 1016.4
20260504031015 44 126 0.0 0.0 0.00 0.00 0.00 82 1016.4
20260504030516 45 126 0.0 0.0 0.00 0.00 0.00 82 1016.5
20260504030016 45 126 0.0 0.0 0.00 0.00 0.00 81 1016.6
20260504025516 45 126 0.0 0.0 0.00 0.00 0.00 80 1016.6
20260504025016 45 126 0.0 0.0 0.00 0.00 0.00 80 1016.5
20260504024527 45 126 0.0 0.0 0.00 0.00 0.00 79 1016.5
20260504024027 45 126 0.0 0.0 0.00 0.00 0.00 79 1016.4
20260504023516 46 126 0.0 0.0 0.00 0.00 0.00 78 1016.4
20260504023016 46 126 0.0 0.0 0.00 0.00 0.00 77 1016.4
20260504022516 46 126 0.0 0.0 0.00 0.00 0.00 77 1016.3
20260504022016 46 126 0.0 0.0 0.00 0.00 0.00 76 1016.3
20260504021516 47 125 0.0 0.0 0.00 0.00 0.00 76 1016.2
20260504021016 47 126 0.0 0.0 0.00 0.00 0.00 75 1016.2
20260504020527 47 125 0.0 0.0 0.00 0.00 0.00 74 1016.1
20260504020016 47 126 0.0 0.0 0.00 0.00 0.00 74 1016.0
20260504015516 48 126 0.0 0.0 0.00 0.00 0.00 73 1016.0
20260504015016 48 126 0.0 0.0 0.00 0.00 0.00 72 1015.9
20260504014527 48 126 0.0 0.0 0.00 0.00 0.00 71 1015.9
20260504014016 49 126 0.0 0.0 0.00 0.00 0.00 70 1015.9
20260504013516 49 126 0.0 0.0 0.00 0.00 0.00 70 1015.8
20260504013016 49 126 0.0 0.0 0.00 0.00 0.00 69 1015.7
20260504012516 50 126 0.0 0.0 0.00 0.00 0.00 68 1015.8
20260504012016 50 126 0.0 0.0 0.00 0.00 0.00 67 1015.8
20260504011517 50 125 0.0 0.0 0.00 0.00 0.00 66 1015.8
20260504011016 51 126 0.0 0.0 0.00 0.00 0.00 66 1015.8
20260504010516 51 126 0.0 0.0 0.00 0.00 0.00 65 1015.8
20260504010016 51 126 0.0 0.0 0.00 0.00 0.00 63 1015.7
20260504005516 52 125 0.0 0.0 0.00 0.00 0.00 62 1015.7
20260504005016 52 126 0.0 0.0 0.00 0.00 0.00 60 1015.7
20260504004516 53 126 0.0 0.0 0.00 0.00 0.00 58 1015.6
20260504004016 53 126 0.0 0.0 0.00 0.00 0.00 58 1015.5
20260504003516 54 126 0.0 0.0 0.00 0.00 0.00 57 1015.5
20260504003027 54 126 0.0 0.0 0.00 0.00 0.00 56 1015.4
20260504002516 55 126 0.0 0.0 0.00 0.00 0.00 57 1015.4
20260504002016 55 126 0.0 1.0 0.00 0.00 0.00 56 1015.4
20260504001516 56 126 0.0 1.0 0.00 0.00 0.00 57 1015.3
20260504001027 56 126 0.0 1.0 0.00 0.00 0.00 52 1015.3
20260504000516 57 126 0.0 1.0 0.00 0.00 0.00 52 1015.2
20260504000016 57 125 0.0 0.0 0.00 0.00 0.00 50 1015.2
20260503235527 57 125 0.0 0.0 0.00 0.00 0.00 51 1015.2
20260503235016 58 125 0.0 1.0 0.00 0.00 0.00 50 1015.2
20260503234527 58 125 0.0 1.0 0.00 0.00 0.00 49 1015.2
20260503234016 59 51 0.0 0.0 0.00 0.00 0.00 45 1015.2
20260503233528 59 50 0.0 0.0 0.00 0.00 0.00 48 1015.3
20260503233017 60 50 0.0 0.0 0.00 0.00 0.00 44 1015.3
20260503232516 60 50 0.0 0.0 0.00 0.00 0.00 45 1015.3
20260503232016 60 50 0.0 1.0 0.00 0.00 0.00 43 1015.2
20260503231516 61 50 0.0 1.0 0.00 0.00 0.00 43 1015.2
20260503231016 61 50 0.0 1.0 0.00 0.00 0.00 44 1015.2
20260503230516 61 50 0.0 1.0 0.00 0.00 0.00 37 1015.2
20260503230016 61 50 0.0 1.0 0.00 0.00 0.00 38 1015.2
20260503225516 62 50 0.0 3.0 0.00 0.00 0.00 38 1015.2
20260503225016 62 50 1.0 3.0 0.00 0.00 0.00 36 1015.3
20260503224516 62 159 0.0 2.0 0.00 0.00 0.00 35 1015.3
20260503224029 62 159 1.0 2.0 0.00 0.00 0.00 36 1015.3
20260503223516 62 151 1.0 2.0 0.00 0.00 0.00 35 1015.4
20260503223027 63 177 0.0 2.0 0.00 0.00 0.00 35 1015.4
20260503222516 63 191 1.0 3.0 0.00 0.00 0.00 31 1015.4
20260503222016 63 192 1.0 3.0 0.00 0.00 0.00 33 1015.5
20260503221516 63 164 0.0 4.0 0.00 0.00 0.00 34 1015.6
20260503221016 63 207 2.0 10.0 0.00 0.00 0.00 32 1015.7
20260503220516 63 238 3.0 10.0 0.00 0.00 0.00 31 1015.8
20260503220016 63 83 0.0 5.0 0.00 0.00 0.00 32 1015.8
20260503215516 63 82 2.0 5.0 0.00 0.00 0.00 31 1015.8
20260503215016 63 57 1.0 3.0 0.00 0.00 0.00 31 1015.8
20260503214516 63 22 0.0 3.0 0.00 0.00 0.00 33 1015.9
20260503214016 63 89 0.0 4.0 0.00 0.00 0.00 34 1015.9
20260503213516 63 37 1.0 8.0 0.00 0.00 0.00 31 1016.0
20260503213016 63 224 1.0 8.0 0.00 0.00 0.00 32 1016.0
20260503212516 63 213 1.0 5.0 0.00 0.00 0.00 35 1016.0
20260503212018 63 222 2.0 6.0 0.00 0.00 0.00 32 1016.1
20260503211516 63 233 1.0 5.0 0.00 0.00 0.00 35 1016.0
20260503211017 63 180 1.0 5.0 0.00 0.00 0.00 32 1016.0
20260503210516 63 312 1.0 7.0 0.00 0.00 0.00 33 1016.0
20260503210016 63 56 1.0 7.0 0.00 0.00 0.00 32 1016.1
20260503205516 63 238 1.0 3.0 0.00 0.00 0.00 33 1016.1
20260503205016 63 235 2.0 4.0 0.00 0.00 0.00 33 1016.1
20260503204539 63 169 1.0 5.0 0.00 0.00 0.00 34 1016.1
20260503204016 63 208 2.0 5.0 0.00 0.00 0.00 32 1016.2
20260503203516 63 346 1.0 6.0 0.00 0.00 0.00 32 1016.2
20260503203016 64 23 0.0 6.0 0.00 0.00 0.00 34 1016.3
20260503202527 64 196 2.0 6.0 0.00 0.00 0.00 33 1016.3
20260503202016 64 159 2.0 5.0 0.00 0.00 0.00 31 1016.4
20260503201516 64 99 1.0 5.0 0.00 0.00 0.00 32 1016.6
20260503201016 64 206 1.0 7.0 0.00 0.00 0.00 32 1016.7
20260503200516 63 21 3.0 7.0 0.00 0.00 0.00 30 1016.6
20260503200028 63 279 1.0 8.0 0.00 0.00 0.00 34 1016.7
20260503195517 62 120 1.0 10.0 0.00 0.00 0.00 31 1016.8
20260503195017 63 62 2.0 10.0 0.00 0.00 0.00 34 1016.9
20260503194517 62 116 1.0 4.0 0.00 0.00 0.00 35 1016.8
20260503194017 62 87 2.0 4.0 0.00 0.00 0.00 34 1016.9
20260503193517 62 120 2.0 5.0 0.00 0.00 0.00 33 1017.0
20260503193017 62 135 2.0 6.0 0.00 0.00 0.00 34 1017.1
20260503192516 63 38 2.0 8.0 0.00 0.00 0.00 34 1017.2
20260503192017 63 72 2.0 8.0 0.00 0.00 0.00 31 1017.2
20260503191518 64 79 3.0 8.0 0.00 0.00 0.00 36 1017.3
20260503191017 64 42 3.0 5.0 0.00 0.00 0.00 35 1017.4
20260503190516 64 126 1.0 4.0 0.00 0.00 0.00 37 1017.4
20260503190017 64 94 1.0 4.0 0.00 0.00 0.00 34 1017.4
20260503185527 64 358 2.0 4.0 0.00 0.00 0.00 33 1017.5
20260503185016 64 54 2.0 5.0 0.00 0.00 0.00 40 1017.6
20260503184517 63 96 1.0 7.0 0.00 0.00 0.00 36 1017.6
20260503184016 63 104 3.0 7.0 0.00 0.00 0.00 32 1017.7
20260503183516 64 213 2.0 5.0 0.00 0.00 0.00 36 1017.8
20260503183017 64 325 2.0 5.0 0.00 0.00 0.00 38 1017.9
20260503182518 63 102 1.0 3.0 0.00 0.00 0.00 40 1017.9
20260503182016 62 328 1.0 4.0 0.00 0.00 0.00 42 1018.0
20260503181516 62 106 1.0 5.0 0.00 0.00 0.00 39 1018.1
20260503181028 62 204 2.0 5.0 0.00 0.00 0.00 34 1018.2
20260503180516 62 213 1.0 6.0 0.00 0.00 0.00 39 1018.3
20260503180017 62 22 3.0 6.0 0.00 0.00 0.00 41 1018.3
20260503175517 62 312 2.0 6.0 0.00 0.00 0.00 43 1018.2
20260503174528 61 117 1.0 6.0 0.00 0.00 0.00 41 1018.3
20260503174017 61 50 1.0 6.0 0.00 0.00 0.00 49 1018.3
20260503173528 60 215 2.0 5.0 0.00 0.00 0.00 39 1018.4
20260503173017 60 203 2.0 6.0 0.00 0.00 0.00 37 1018.5
20260503172517 61 188 3.0 7.0 0.00 0.00 0.00 41 1018.5
20260503172017 60 338 2.0 7.0 0.00 0.00 0.00 39 1018.5
20260503171517 60 180 2.0 5.0 0.00 0.00 0.00 42 1018.7
20260503171016 60 19 1.0 6.0 0.00 0.00 0.00 38 1018.8
20260503170517 60 243 2.0 6.0 0.00 0.00 0.00 45 1019.0
20260503150517 55 29 1.0 6.0 0.00 0.00 0.00 51 1020.0